When you browse on this site, cookies collect data to enhance your experience and personalize the content and advertising you see.
Visit our Privacy Policy to learn more. By continuing to use the site, you agree to this use of cookies and data.
  • In Portugal
  • List of Countries
  • For 7 days
  • Water Temperature
  • Satellite Maps
  • Weather Map
  • Weather Widgets
  • user-avatar
    Login

    Hourly Weather Nizhniy Katruh

    Today, 20 June, Thursday

    Time Temperature Precipitation Wind Pressure Humidity
    00:00 +11°C° 0 mm 1 mps 601 mmHg 89%
    01:00 +11°C° 0 mm 1 mps 601 mmHg 89%
    02:00 +11°C° 0 mm 1 mps 601 mmHg 90%
    03:00 +10°C° 0 mm 1 mps 601 mmHg 90%
    04:00 +12°C° 0 mm 1 mps 601 mmHg 88%
    05:00 +13°C° 0 mm 1 mps 602 mmHg 85%
    06:00 +14°C° 0 mm 0 mps 603 mmHg 83%
    07:00 +16°C° 0.2 mm 1 mps 603 mmHg 79%
    08:00 +17°C° 0.2 mm 2 mps 604 mmHg 76%
    09:00 +18°C° 0 mm 2 mps 604 mmHg 73%
    10:00 +18°C° 1.2 mm 2 mps 604 mmHg 73%
    11:00 +18°C° 1.2 mm 2 mps 604 mmHg 74%
    12:00 +19°C° 1.2 mm 2 mps 604 mmHg 75%
    13:00 +18°C° 1.5 mm 2 mps 604 mmHg 74%
    14:00 +18°C° 1.5 mm 2 mps 603 mmHg 74%
    15:00 +19°C° 0 mm 2 mps 603 mmHg 73%
    16:00 +18°C° 0.7 mm 2 mps 603 mmHg 74%
    17:00 +18°C° 0.7 mm 2 mps 603 mmHg 75%
    18:00 +17°C° 0.7 mm 2 mps 603 mmHg 75%
    19:00 +16°C° 0.2 mm 1 mps 602 mmHg 79%
    20:00 +14°C° 0.2 mm 1 mps 602 mmHg 82%
    21:00 +12°C° 0.2 mm 1 mps 601 mmHg 85%
    22:00 +12°C° 0 mm 1 mps 601 mmHg 85%
    23:00 +12°C° 0 mm 1 mps 601 mmHg 85%

    Tomorrow, 21 June, Friday

    Time Temperature Precipitation Wind Pressure Humidity
    00:00 +12°C° 0 mm 1 mps 601 mmHg 84%
    01:00 +12°C° 0 mm 1 mps 601 mmHg 85%
    02:00 +12°C° 0 mm 1 mps 601 mmHg 85%
    03:00 +11°C° 0 mm 1 mps 601 mmHg 85%
    04:00 +12°C° 0 mm 1 mps 601 mmHg 84%
    05:00 +13°C° 0 mm 1 mps 602 mmHg 82%
    06:00 +14°C° 0 mm 1 mps 602 mmHg 81%
    07:00 +15°C° 0.3 mm 1 mps 603 mmHg 77%
    08:00 +16°C° 0.3 mm 2 mps 604 mmHg 73%
    09:00 +18°C° 0.3 mm 2 mps 604 mmHg 69%
    10:00 +17°C° 1 mm 2 mps 604 mmHg 70%
    11:00 +17°C° 1 mm 2 mps 604 mmHg 72%
    12:00 +17°C° 1 mm 2 mps 604 mmHg 73%
    13:00 +17°C° 1.1 mm 2 mps 604 mmHg 74%
    14:00 +17°C° 1.1 mm 2 mps 604 mmHg 75%
    15:00 +17°C° 1.1 mm 2 mps 604 mmHg 75%
    16:00 +17°C° 0.5 mm 2 mps 604 mmHg 77%
    17:00 +16°C° 0.5 mm 2 mps 604 mmHg 80%
    18:00 +16°C° 0.5 mm 2 mps 603 mmHg 82%
    19:00 +14°C° 0 mm 1 mps 603 mmHg 85%
    20:00 +13°C° 0 mm 1 mps 603 mmHg 87%
    21:00 +11°C° 0 mm 1 mps 602 mmHg 90%
    22:00 +11°C° 0 mm 1 mps 602 mmHg 89%
    23:00 +11°C° 0 mm 1 mps 602 mmHg 89%

    Day after tomorrow, 22 June, Saturday

    Time Temperature Precipitation Wind Pressure Humidity
    00:00 +11°C° 0 mm 1 mps 602 mmHg 88%
    01:00 +10°C° 0 mm 1 mps 602 mmHg 86%
    02:00 +10°C° 0 mm 1 mps 602 mmHg 84%
    03:00 +10°C° 0 mm 1 mps 602 mmHg 82%
    04:00 +12°C° 0 mm 1 mps 603 mmHg 79%
    05:00 +13°C° 0 mm 1 mps 603 mmHg 76%
    06:00 +14°C° 0 mm 1 mps 604 mmHg 74%
    07:00 +16°C° 0 mm 1 mps 605 mmHg 70%
    08:00 +18°C° 0 mm 1 mps 606 mmHg 67%
    09:00 +19°C° 0 mm 2 mps 606 mmHg 63%
    10:00 +19°C° 0.9 mm 2 mps 606 mmHg 66%
    11:00 +19°C° 0.9 mm 2 mps 606 mmHg 68%
    12:00 +20°C° 0.9 mm 2 mps 606 mmHg 71%
    13:00 +20°C° 1.7 mm 2 mps 606 mmHg 71%
    14:00 +20°C° 1.7 mm 2 mps 606 mmHg 72%
    15:00 +19°C° 1.7 mm 2 mps 606 mmHg 73%
    16:00 +19°C° 1.1 mm 2 mps 606 mmHg 74%
    17:00 +20°C° 1.1 mm 1 mps 605 mmHg 76%
    18:00 +19°C° 1.1 mm 1 mps 605 mmHg 77%
    19:00 +18°C° 0.2 mm 1 mps 605 mmHg 80%
    20:00 +15°C° 0.2 mm 1 mps 604 mmHg 83%
    21:00 +13°C° 0.2 mm 1 mps 604 mmHg 85%
    22:00 +13°C° 0 mm 1 mps 604 mmHg 85%
    23:00 +13°C° 0 mm 1 mps 603 mmHg 85%

    23 June, Sunday

    Time Temperature Precipitation Wind Pressure Humidity
    00:00 +13°C° 0 mm 1 mps 603 mmHg 86%
    01:00 +13°C° 0 mm 1 mps 603 mmHg 85%
    02:00 +12°C° 0 mm 1 mps 603 mmHg 84%
    03:00 +12°C° 0 mm 2 mps 603 mmHg 83%
    04:00 +14°C° 0 mm 1 mps 604 mmHg 80%
    05:00 +15°C° 0 mm 1 mps 605 mmHg 77%
    06:00 +18°C° 0 mm 1 mps 606 mmHg 74%
    07:00 +19°C° 0 mm 1 mps 606 mmHg 68%
    08:00 +20°C° 0 mm 1 mps 607 mmHg 62%
    09:00 +21°C° 0 mm 2 mps 607 mmHg 57%
    10:00 +21°C° 0.2 mm 2 mps 607 mmHg 57%
    11:00 +23°C° 0.2 mm 2 mps 608 mmHg 58%
    12:00 +22°C° 0.2 mm 3 mps 608 mmHg 58%
    13:00 +24°C° 0.3 mm 3 mps 607 mmHg 57%
    14:00 +24°C° 0.3 mm 2 mps 607 mmHg 57%
    15:00 +24°C° 0.3 mm 2 mps 607 mmHg 56%
    16:00 +23°C° 0.1 mm 2 mps 607 mmHg 59%
    17:00 +23°C° 0.1 mm 2 mps 606 mmHg 63%
    18:00 +22°C° 0.1 mm 1 mps 606 mmHg 66%
    19:00 +20°C° 0 mm 1 mps 605 mmHg 70%
    20:00 +18°C° 0 mm 1 mps 605 mmHg 74%
    21:00 +15°C° 0 mm 1 mps 604 mmHg 78%
    22:00 +14°C° 0 mm 1 mps 604 mmHg 78%
    23:00 +14°C° 0 mm 1 mps 604 mmHg 78%

    24 June, Monday

    Time Temperature Precipitation Wind Pressure Humidity
    00:00 +14°C° 0 mm 2 mps 604 mmHg 77%
    01:00 +14°C° 0 mm 2 mps 604 mmHg 76%
    02:00 +14°C° 0 mm 1 mps 604 mmHg 74%
    03:00 +13°C° 0 mm 1 mps 603 mmHg 72%
    04:00 +15°C° 0 mm 1 mps 604 mmHg 70%
    05:00 +18°C° 0 mm 1 mps 605 mmHg 67%
    06:00 +19°C° 0 mm 1 mps 606 mmHg 65%
    07:00 +21°C° 0 mm 1 mps 606 mmHg 61%
    08:00 +22°C° 0 mm 1 mps 607 mmHg 57%
    09:00 +24°C° 0 mm 2 mps 607 mmHg 53%
    10:00 +24°C° 0.5 mm 2 mps 607 mmHg 54%
    11:00 +24°C° 0.5 mm 2 mps 608 mmHg 54%
    12:00 +25°C° 0.5 mm 2 mps 608 mmHg 55%
    13:00 +25°C° 0.8 mm 2 mps 607 mmHg 55%
    14:00 +25°C° 0.8 mm 2 mps 607 mmHg 56%
    15:00 +25°C° 0.8 mm 2 mps 607 mmHg 57%
    16:00 +24°C° 0.6 mm 2 mps 606 mmHg 60%
    17:00 +23°C° 0.6 mm 1 mps 606 mmHg 64%
    18:00 +22°C° 0.6 mm 1 mps 606 mmHg 67%
    19:00 +20°C° 0.1 mm 1 mps 605 mmHg 71%
    20:00 +18°C° 0.1 mm 1 mps 605 mmHg 74%
    21:00 +15°C° 0.1 mm 1 mps 604 mmHg 77%
    22:00 +15°C° 0.2 mm 1 mps 604 mmHg 78%
    23:00 +15°C° 0.2 mm 1 mps 604 mmHg 78%

    25 June, Tuesday

    Time Temperature Precipitation Wind Pressure Humidity
    00:00 +14°C° 0.2 mm 1 mps 604 mmHg 78%
    01:00 +15°C° 0.1 mm 1 mps 604 mmHg 77%
    02:00 +15°C° 0.1 mm 1 mps 604 mmHg 76%
    03:00 +15°C° 0.1 mm 1 mps 604 mmHg 75%
    04:00 +16°C° 0 mm 1 mps 605 mmHg 72%
    05:00 +18°C° 0 mm 1 mps 605 mmHg 69%
    06:00 +19°C° 0 mm 1 mps 606 mmHg 66%
    07:00 +20°C° 0 mm 1 mps 607 mmHg 60%
    08:00 +21°C° 0 mm 2 mps 607 mmHg 55%
    09:00 +23°C° 0 mm 2 mps 608 mmHg 50%
    10:00 +23°C° 0.4 mm 2 mps 608 mmHg 51%
    11:00 +24°C° 0.4 mm 2 mps 608 mmHg 53%
    12:00 +24°C° 0.4 mm 3 mps 608 mmHg 55%
    13:00 +24°C° 0.9 mm 2 mps 608 mmHg 55%
    14:00 +24°C° 0.9 mm 2 mps 607 mmHg 55%
    15:00 +24°C° 0.9 mm 2 mps 607 mmHg 56%
    16:00 +23°C° 0.4 mm 2 mps 607 mmHg 59%
    17:00 +21°C° 0.4 mm 2 mps 607 mmHg 62%
    18:00 +22°C° 0.4 mm 1 mps 607 mmHg 65%
    19:00 +20°C° 0 mm 1 mps 606 mmHg 69%
    20:00 +18°C° 0 mm 1 mps 605 mmHg 73%
    21:00 +15°C° 0 mm 1 mps 604 mmHg 77%
    22:00 +14°C° 0 mm 1 mps 604 mmHg 78%
    23:00 +14°C° 0 mm 1 mps 604 mmHg 78%
    Show more